This is the latest recevied packets stored in our database for station/object DB0LER. If no packets are shown the sender has not sent any packets the latest 24 hours.

If you compare the raw packets with similar data from other websites it may differ (especially the path), the reason is that we are not collecting packets from the same APRS-IS servers. Each APRS-IS server performes duplicate filtering, and which packet that is considered to be a duplicate may differ depending on which APRS-IS server you receive your data from.

1620539052: DB0LER>APRX29,TCPIP*,qAC,DB0GW:T#013,211.000003815,211,450,,, Testing

1620539357: DB0LER>APRX29,TCPIP*,qAC,DB0GW:T#053,212.000007629,212,450,,, Testing

1620539657: DB0LER>APRX29,TCPIP*,qAC,DB0GW:T#065,211.000003815,211,447,,, Testing

1620539982: DB0LER>APRX29,TCPIP*,qAC,DB0GW:T#064,211.000003815,211,445,,, Testing

1620540062: DB0LER>APRX29,TCPIP*,qAC,DB0GW::DB0LER :EQNS.0,0.1,0,0,0.1,0,0,0.1,0

1620540062: DB0LER>APRX29,TCPIP*,qAC,DB0GW::DB0LER :UNIT.C,C,%

1620540062: DB0LER>APRX29,TCPIP*,qAC,DB0GW::DB0LER :PARM.Temp1,Temp2,Feuchte

1620540102: DB0LER>APRX29,DB0PDF-10*,WIDE2-1,qAR,DB0EMS-5::DB0LER :PARM.Temp1,Temp2,Feuchte

1620540102: DB0LER>APRX29,DB0PDF-10*,WIDE2-1,qAR,DB0EMS-5::DB0LER :UNIT.C,C,%

1620540103: DB0LER>APRX29,DB0PDF-10*,WIDE2-1,qAR,DB0HFT-10::DB0LER :EQNS.0,0.1,0,0,0.1,0,0,0.1,0

1620540275: DB0LER>APRX29,TCPIP*,qAC,DB0GW:T#042,216.000003815,216,445,,, Testing

1620540397: DB0LER>APRX29,TCPIP*,qAC,DB0GW:!5313.29N/00726.95E#APRS-Digi Leer

1620540571: DB0LER>APRX29,TCPIP*,qAC,DB0GW:T#027,217.000007629,217,444,,, Testing

1620540858: DB0LER>APRX29,TCPIP*,qAC,DB0GW:T#062,217.000007629,217,440,,, Testing

1620541211: DB0LER>APRX29,TCPIP*,qAC,DB0GW:T#030,223.999996185,223,440,,, Testing

1620541557: DB0LER>APRX29,TCPIP*,qAC,DB0GW:T#005,223.999996185,223,437,,, Testing

1620541857: DB0LER>APRX29,TCPIP*,qAC,DB0GW:T#049,226.000003815,226,437,,, Testing

1620542147: DB0LER>APRX29,TCPIP*,qAC,DB0GW:!5313.29N/00726.95E#APRS-Digi Leer

1620542157: DB0LER>APRX29,TCPIP*,qAC,DB0GW:T#092,228.999996185,228,434,,, Testing

1620542511: DB0LER>APRX29,TCPIP*,qAC,DB0GW:T#075,232.000007629,232,432,,, Testing

1620542827: DB0LER>APRX29,TCPIP*,qAC,DB0GW:T#088,232.999992371,232,430,,, Testing

1620543177: DB0LER>APRX29,TCPIP*,qAC,DB0GW:T#068,237.000007629,237,430,,, Testing

1620543237: DB0LER>APRX29,TCPIP*,qAC,DB0GW::DB0LER :EQNS.0,0.1,0,0,0.1,0,0,0.1,0

1620543237: DB0LER>APRX29,TCPIP*,qAC,DB0GW::DB0LER :PARM.Temp1,Temp2,Feuchte

1620543237: DB0LER>APRX29,TCPIP*,qAC,DB0GW::DB0LER :UNIT.C,C,%

Initial position
Current position
Ruler